Weather History for Rochester, NH

Change the Weather History Date:

Tuesday, May 6, 2014

  Actual Average (KSFM) Record (KSFM)
Temperature  
Mean Temperature 52 °F -  
Max Temperature 62 °F 61 °F 80 °F (2002)
Min Temperature 43 °F 39 °F 26 °F (2013)
Degree Days  
Heating Degree Days 12    
Growing Degree Days 2 (Base 50)    
Moisture  
Dew Point 31 °F    
Average Humidity 44    
Maximum Humidity 76    
Minimum Humidity 24    
Precipitation  
Precipitation 0.00 in - - ()
Sea Level Pressure  
Sea Level Pressure 29.87 in    
Wind  
Wind Speed 9 mph (NW)    
Max Wind Speed 18 mph    
Max Gust Speed 26 mph    
Visibility 10 miles    
Events      
Averages and records for this station are not official NWS values.
T = Trace of Precipitation, MM = Missing Value Source: NWS Daily Summary

Daily Weather History Graph

Daily Weather History Graph

Search for Another Location

Airport:

Trip Planner

Search our weather history database for the weather conditions in past years. The results will help you decide how hot, cold, wet, or windy it might be!

Date:

Astronomy

May. 06, 2014 Rise Set
Actual Time 5:30 AM EDT 7:51 PM EDT
Civil Twilight 4:58 AM EDT 8:22 PM EDT
Nautical Twilight 4:19 AM EDT 9:02 PM EDT
Astronomical Twilight 3:35 AM EDT 9:46 PM EDT
Moon 11:45 AM EDT (5/6) 1:06 AM EDT (5/6)
Length of Visible Light 15h 24m
Length of Day
14h 20m
Waxing Crescent, 46% of the Moon is Illuminated
May 6
Waxing Crescent
May 6
First Quarter
May 14
Full
May 21
Last Quarter
May 28
New

Hourly Weather History & Observations

Time (EDT) Temp. Windchill Dew Point Humidity Pressure Visibility Wind Dir Wind Speed Gust Speed Precip Events Conditions
12:51 AM 46.0 °F 43.9 °F 35.1 °F 66% 29.83 in 10.0 mi West 4.6 mph - N/A   Clear
2:51 AM 45.0 °F 41.8 °F 36.0 °F 71% 29.81 in 10.0 mi Variable 5.8 mph - N/A   Clear
3:51 AM 43.0 °F 39.5 °F 36.0 °F 76% 29.81 in 10.0 mi WNW 5.8 mph - N/A   Clear
7:51 AM 51.1 °F - 37.0 °F 59% 29.83 in 10.0 mi NW 8.1 mph - N/A   Clear
8:51 AM 54.0 °F - 35.1 °F 49% 29.83 in 10.0 mi NW 15.0 mph 18.4 mph N/A   Clear
10:51 AM 57.9 °F - 35.1 °F 42% 29.82 in 10.0 mi NW 10.4 mph 23.0 mph N/A   Partly Cloudy
11:51 AM 59.0 °F - 32.0 °F 36% 29.82 in 10.0 mi NW 16.1 mph 23.0 mph N/A   Clear
12:51 PM 61.0 °F - 28.9 °F 30% 29.81 in 10.0 mi NNW 15.0 mph 24.2 mph N/A   Clear
1:51 PM 61.0 °F - 26.1 °F 26% 29.81 in 10.0 mi NNW 13.8 mph 24.2 mph N/A   Scattered Clouds
2:51 PM 62.1 °F - 25.0 °F 24% 29.81 in 10.0 mi NW 18.4 mph 26.5 mph N/A   Scattered Clouds
3:51 PM 62.1 °F - 25.0 °F 24% 29.82 in 10.0 mi NW 13.8 mph 26.5 mph N/A   Clear
4:51 PM 62.1 °F - 25.0 °F 24% 29.83 in 10.0 mi NW 16.1 mph 26.5 mph N/A   Clear
5:51 PM 59.0 °F - 26.1 °F 28% 29.86 in 10.0 mi NW 13.8 mph - N/A   Partly Cloudy
6:51 PM 57.0 °F - 34.0 °F 42% 29.88 in 10.0 mi NE 9.2 mph - N/A   Overcast
7:51 PM 54.0 °F - 28.0 °F 37% 29.92 in 10.0 mi North 10.4 mph - N/A   Partly Cloudy
8:51 PM 51.1 °F - 28.9 °F 43% 29.96 in 10.0 mi NW 6.9 mph - N/A   Clear
9:51 PM 50.0 °F - 30.0 °F 46% 29.99 in 10.0 mi NNW 5.8 mph - N/A   Clear
10:51 PM 46.9 °F - 30.9 °F 54% 30.01 in 10.0 mi NW 8.1 mph - N/A   Clear
11:51 PM 46.9 °F - 30.9 °F 54% 30.01 in 10.0 mi Calm Calm - N/A   Clear